Location: *
(47.6569°N, 7.4256°E)
Time: 19:03:06
(UTC+00:00)

Envisat - Visible Passes

Search period start: 27 February 2021 00:00
Search period end: 09 March 2021 00:00
Orbit: 764 x 766 km, 98.1° (Epoch: 27 February)

Date Brightness Start Highest point End Pass type
(mag) Time Alt. Az. Time Alt. Az. Time Alt. Az.
27 Feb 5.6 04:09:56 10° NE 04:13:46 21° E 04:17:34 10° SE visible
28 Feb 3.3 05:11:16 10° NNE 05:16:22 72° ESE 05:21:26 10° S visible
01 Mar 4.8 04:34:45 10° NNE 04:39:24 34° E 04:44:00 10° SSE visible
02 Mar 5.9 03:58:56 10° NE 04:02:13 17° E 04:05:28 10° SE visible
02 Mar 3.0 05:36:41 10° N 05:41:45 70° WNW 05:46:48 10° SSW visible
03 Mar 3.7 04:59:53 10° NNE 05:04:55 57° E 05:09:54 10° S visible
03 Mar 6.8 18:01:07 10° WSW 18:02:34 11° W 18:04:01 10° WNW visible
04 Mar 5.2 04:23:31 10° NE 04:27:53 28° E 04:32:13 10° SSE visible
05 Mar 6.1 03:48:09 10° ENE 03:50:38 13° E 03:53:06 10° ESE visible
05 Mar 3.0 05:25:13 10° NNE 05:30:21 86° WNW 05:35:26 10° SSW visible
06 Mar 4.2 04:48:32 10° NNE 04:53:27 46° E 04:58:19 10° S visible
06 Mar 6.4 17:48:18 10° WSW 17:50:58 14° W 17:53:38 10° NW visible
07 Mar 5.5 04:12:21 10° NE 04:16:20 23° E 04:20:18 10° SE visible
08 Mar 6.3 03:38:02 10° ENE 03:39:02 10° E 03:40:01 10° E visible
08 Mar 3.3 05:13:48 10° NNE 05:18:55 77° ESE 05:23:59 10° S visible
